Regional Weather Roundup
Issued by NWS Wakefield, VA

Home | Current Version | Previous Version | Graphics & Text | Print | Product List | Glossary On
Versions: 1 2 3 4 5 6 7 8 9 10 11 12 13 14 15 16 17 18 19 20 21 22 23 24 25 26 27 28 29 30 31 32 33 34 35 36 37 38 39 40 41 42 43 44 45 46 47 48 49 50
262
ASUS41 KAKQ 242315
RWRAKQ

REGIONAL WEATHER ROUNDUP
NATIONAL WEATHER SERVICE WAKEFIELD VA
700 PM EDT SUN JUL 24 2016

Note: "fair" indicates few or no clouds below 12,000 feet with no
significant weather and/or obstructions to visibility. * = Denotes
station may not report precipitation (e.g., rain,snow,etc.),
thunder or fog.

VAZ042-051-052>054-056-250000-
NORTHERN VIRGINIA

CITY           SKY/WX    TMP DP  RH WIND       PRES   REMARKS
WASH NATIONAL  PTSUNNY   93  72  50 S12       29.94S HX 101
DULLES         PTSUNNY   91  68  46 S10       29.95R HX  95
FORT BELVOIR   FAIR      93  69  45 S5        29.94F HX  97
QUANTICO       FAIR      92  72  51 SE6       29.95S HX  99
FREDERICKSBRG*   N/A     94  74  51 S5        29.94S HX 104
STAFFORD*      FAIR      93  70  47 E6        29.99R HX  99
WARRENTON      FAIR      92  67  43 SE3       29.95S HX  96
CULPEPER*      FAIR      92  75  56 CALM      29.96R HX 103
MANASSAS*      SUNNY     91  72  52 SE7       29.95S HX  98
LEESBURG*      FAIR      93  73  52 SW5       29.95S HX 102
WINCHESTER     FAIR      91  68  46 SE6       29.96S HX  95
FRONT ROYAL*   FAIR      90  73  58 S3        29.95S HX  98
LURAY*         FAIR      90  72  55 S5        29.98R HX  96
$$

VAZ048-049-060>072-079>083-250000-
CENTRAL AND SOUTH CENTRAL VIRGINIA

CITY           SKY/WX    TMP DP  RH WIND       PRES   REMARKS
RICHMOND       FAIR      91  76  61 SW7       29.94F HX 103
CHESTERFIELD*  FAIR      93  70  46 S7        29.97S HX  99
PETERSBURG*    FAIR      93  77  59 CALM      29.96S HX 106
HANOVER        FAIR      93  78  61 CALM      29.97S HX 108
TAPPAHANNOCK*  FAIR      94  71  47 SE5       29.97R HX 100
QUINTON*       FAIR      93  79  63 CALM      29.94S HX 110
CHARLOTTSVILLE FAIR      94  72  48 SW5       29.96S HX 102
GORDONSVILLE*  FAIR      92  75  59 E3        29.96R HX 103
ORANGE*          N/A     91  70  49 CALM      29.98S HX  97
LOUISA*        FAIR      93  79  62 CALM      29.95S HX 110
BUMPASS*       FAIR      91  79  68 CALM      29.96S HX 106
FARMVILLE*     NOT AVBL
CREWE*         FAIR      94  75  54 S3        29.97R HX 105
FORT PICKETT*  FAIR      92  75  56 SW8       29.97S HX 103
CHASE CITY*    FAIR      93  71  48 CALM      29.99S HX 100
CLARKSVILLE*   FAIR      91  73  55 S3        29.98S HX 100
SOUTH HILL*    FAIR      91  75  58 SW8       30.04S HX 101
LAWRENCEVILLE* FAIR      91  76  60 MISG      29.98R HX 103
EMPORIA*       FAIR      91  73  55 S3        29.98S HX 100
$$

VAZ088>098-250000-
SOUTHEAST VIRGINIA

CITY           SKY/WX    TMP DP  RH WIND       PRES   REMARKS
NORFOLK        FAIR      93  75  55 CALM      29.95S HX 104
VIRGINIA BEACH PTSUNNY   97  75  49 S7        29.95S HX 109
NORFOLK NAVAL  PTSUNNY   93  75  55 VRB3      29.97R HX 104
WEST POINT*    FAIR      87  74  65 E9        29.96S HX  96
SALUDA*        FAIR      89  79  73 CALM      29.96R HX 104
NEWPORT NEWS   FAIR      93  76  57 SW8       29.95S HX 105
LANGLEY AFB    FAIR      91  76  62 NE8       29.95S HX 103
FORT EUSTIS    FAIR      95  79  60 SW3       29.94S HX 112
WILLIAMSBURG*  FAIR      93  81  66 SE5       29.96S HX 113
HR EXEC AP*    FAIR      91  75  59 SW9       29.98R HX 102
FRANKLIN*      FAIR      91  74  56 SW10      29.97R HX 101
US460-WAKEFLD  FAIR      93  76  57 SW3       29.96S HX 105
$$

VAZ020-022-025-037-045-250000-
WEST CENTRAL AND SOUTHWEST VIRGINIA

CITY           SKY/WX    TMP DP  RH WIND       PRES   REMARKS
STAUNTON*      FAIR      89  75  63 S6        30.01S HX  99
WAYNESBORO*    FAIR      91  70  50 S7        30.02S HX  96
HOT SPRINGS VA NOT AVBL
LYNCHBURG      FAIR      91  72  53 S8        30.01S HX  98
DANVILLE       FAIR      91  72  53 CALM      29.99S HX  98
SOUTH BOSTON*  FAIR      92  71  51 S3        29.99R HX  98
MARTINSVILLE   FAIR      92  71  50 S3        30.03S HX  98
ROANOKE        FAIR      94  65  38 S10       30.02S HX  96
BLACKSBURG     FAIR      79  70  73 E5        30.12S
DUBLIN*        FAIR      91  62  38 S7        30.09S
MARION*        CLOUDY    83  70  64 SW6       30.13S
HILLSVILLE*    FAIR      85  64  49 S6        30.12F
RICHLANDS*     FAIR      87  68  52 W5        30.12S
WISE*          FAIR      86  59  39 NW5       30.14S
ABINGDON*      PTSUNNY   88  70  54 S6        30.08S
$$

MDZ021>025-VAZ099-100-250000-
SOUTHERN MARYLAND AND THE DELMARVA PENINSULA

CITY           SKY/WX    TMP DP  RH WIND       PRES   REMARKS
PATUXENT RIVER SUNNY     90  71  53 SE12      29.95S HX  96
BAY BRIDGE APT SUNNY     91  68  46 S3        29.95R HX  95
LEONARDTOWN    SUNNY     91  66  43 SE7       29.97R
DOVER          MOSUNNY   84  74  72 SE7       29.96R
GEORGETOWN     MOSUNNY   88  72  58 E9        29.97S
EASTON         MOSUNNY   93  75  55 CALM      29.99S HX 104
CAMBRIDGE      SUNNY     90  70  51 CALM      29.95R HX  95
SALISBURY      SUNNY     89  68  49 SE5       29.96S
OCEAN CITY     SUNNY     81  75  82 SE5       29.98R
WALLOPS ISLAND FAIR      83  76  79 SE8       29.98S
ACCOMACK*      FAIR      86  77  74 CALM      29.97S HX  97
$$

NCZ012>017-030>032-250000-
NORTH CENTRAL AND EASTERN NORTH CAROLINA

CITY           SKY/WX    TMP DP  RH WIND       PRES   REMARKS
ROANOKE RAPIDS FAIR      88  79  74 SW3       29.98S HX 102
RALEIGH        PTSUNNY   92  72  51 S7        29.99S HX  99
ELIZABETH CITY SUNNY     90  75  61 S7        29.97S HX 100
AHOSKIE*       SUNNY     87  80  81 CALM      29.99R HX 103
EDENTON*       SUNNY     93  72  49 SW6       29.99R HX 101
CURRITUCK*     SUNNY     92  75  57 CALM      29.98S HX 102
KILL DEVIL HLS MOSUNNY   90  77  64 S5        29.98R HX 103
MANTEO           N/A     88  80  77 SW15      29.99R HX 105
CAPE HATTERAS  SUNNY     86  78  77 SW8       30.02S HX  98
TARBORO*       FAIR      92  77  61 CALM      29.99R HX 105
GOLDSBORO      SUNNY     94  71  46 S6        29.97S HX 101
WASHINGTON     SUNNY     91  74  57 SW5       29.98S HX 100
GREENVILLE     SUNNY     91  75  59 SW6       30.00S HX 102
NEW BERN       SUNNY     88  75  65 S8        30.01S HX  97
WILMINGTON     SUNNY     87  75  67 S7        30.01S HX  96
$$

VAZ048-250000-
ELSEWHERE

CITY           SKY/WX    TMP DP  RH WIND       PRES   REMARKS
HARRISBURG PA  CLOUDY    90  71  53 S5        29.93S HX  96
BALTIMORE      PTSUNNY   90  65  43 S6        29.94S
ANNAPOLIS      SUNNY     88  73  61 SE7       29.94S HX  95
ANDREWS AFB    FAIR      88  72  59 SE9       29.95S HX  95
PHILADELPHIA   CLOUDY    90  66  45 SW10      29.95S
GREENSBORO     CLOUDY    93  60  33 SW6       30.01S
ROCKY MOUNT    SUNNY     91  77  63 SW5       29.99S HX 104
$$

VAZ100-250000-
MARINE

STATION/POSITION TIME  TEMP    WIND        PRES    WAVE   SWELL
                       AIR SEA DIR/SP/G            HT/PER HT/PER
                 (UTC) (F)     (DEG/KT/KT) (MB)    (FT/S) (FT/S)
BRANDYWINE LGT   2200   79                   N/A
CAPE MAY NJ      2200   81 74                N/A
LEWES DE         2200   83 76                N/A
OCEAN-CITY-INLET 2200   82 71                N/A
WACHAPREAGUE VA  2200   84                   N/A
THOMAS POINT MD  2300   88 83  190/  4/  4 1015.6R
GOOSES REEF MD   2200   89 88  120/  2/  4 1015.3F   0
COVE POINT MD    2200   87                   N/A
SOLOMONS ISLAND  2200   89 86                N/A
BISHOPS HEAD MD  2200   90                   N/A
PINEY POINT MD   2200          150/ 10/ 11   N/A
POTOMAC MD       2200   89 86  160/  8/  8 1013.3F   1
CAMBRIDGE MD     2200   91 87                N/A
LEWISETTA VA     2200   88 87                N/A
RAPPAHANNOCK LGT 2200          110/ 10/ 10 1015.2F
STINGRAY PT      2200   89 87   70/  8/  8 1014.9F   0
YORK RVR RNG VA  2200   85                   N/A
YORKTOWN VA      2200   91 85                N/A
JAMESTOWN VA     2200   93     130/  2/  2   N/A     0
DOMINION TERM VA 2200   91                   N/A
KIPTOPEKE VA     2200      78                N/A
CHES BAY BRIDGE  2200   83 75                N/A
CAPE HENRY VA    2200   83                   N/A
WILLOUBY STN VA  2200   89                   N/A
CAPE HENRY BUOY  2212      81                N/A     2/ 9
1ST LANDING BUOY 2200   82 80  100/  8/ 10 1014.0F
CAPE CHARLES BUO 2226      74                N/A     2/ 9
OFFSHORE WE BUOY 2221      83                N/A     2/ 9
64NM E OF VA BCH 2250   83 81  200/ 12/ 14 1015.2S   2/ 8   2/ 8
DUCK PIER NC     2200   85 66                N/A
44100 DUCK FRF   2205      81                N/A     2/ 8
44056 DUCK FRF   2211      78                N/A     1/ 8
OREGON INLET NC  2200   86 85                N/A
HATTERAS NC      2200   85 83                N/A
DIAMOND SHLS NC  2250   85 85  230/ 12/ 14 1016.6    3/ 9   2/ 9
CAPE LOOKOUT NC  2300   85     210/  9/ 12 1016.4R
$$




USA.gov is the U.S. government's official web portal to all federal, state and local government web resources and services.